Year,Month,Day,Hour,Minute,Value (Times are PST for temperature in C)
2011,10,23,00,00,9.10
2011,10,23,00,01,9.10
2011,10,23,00,02,9.10
2011,10,23,00,03,9.10
2011,10,23,00,04,9.10
2011,10,23,00,05,9.10
2011,10,23,00,06,9.10
2011,10,23,00,07,9.10
2011,10,23,00,08,9.00
2011,10,23,00,09,9.10
2011,10,23,00,10,9.10
2011,10,23,00,11,9.10
2011,10,23,00,12,9.10
2011,10,23,00,13,9.10
2011,10,23,00,14,9.10
2011,10,23,00,15,9.10
2011,10,23,00,16,9.10
2011,10,23,00,17,9.00
2011,10,23,00,18,9.00
2011,10,23,00,19,8.90
2011,10,23,00,20,8.90
2011,10,23,00,21,8.90
2011,10,23,00,22,8.90
2011,10,23,00,23,8.90
2011,10,23,00,24,8.90
2011,10,23,00,25,8.90
2011,10,23,00,26,8.90
2011,10,23,00,27,8.80
2011,10,23,00,28,8.80
2011,10,23,00,29,8.80
2011,10,23,00,30,8.80
2011,10,23,00,31,8.80
2011,10,23,00,32,8.80
2011,10,23,00,33,8.80
2011,10,23,00,34,8.80
2011,10,23,00,35,8.80
2011,10,23,00,36,8.80
2011,10,23,00,37,8.70
2011,10,23,00,38,8.70
2011,10,23,00,39,8.70
2011,10,23,00,40,8.70
2011,10,23,00,41,8.70
2011,10,23,00,42,8.70
2011,10,23,00,43,8.70
2011,10,23,00,44,8.70
2011,10,23,00,45,8.70
2011,10,23,00,46,8.70
2011,10,23,00,47,8.70
2011,10,23,00,48,8.70
2011,10,23,00,49,8.80
2011,10,23,00,50,8.80
2011,10,23,00,51,8.90
2011,10,23,00,52,9.00
2011,10,23,00,53,9.00
2011,10,23,00,54,9.10
2011,10,23,00,55,9.20
2011,10,23,00,56,9.20
2011,10,23,00,57,9.30
2011,10,23,00,58,9.30
2011,10,23,00,59,9.40
2011,10,23,01,00,9.50
2011,10,23,01,01,9.60
2011,10,23,01,02,9.70
2011,10,23,01,03,9.80
2011,10,23,01,04,9.80
2011,10,23,01,05,9.90
2011,10,23,01,06,9.90
2011,10,23,01,07,10.00
2011,10,23,01,08,10.10
2011,10,23,01,09,10.20
2011,10,23,01,10,10.20
2011,10,23,01,11,10.20
2011,10,23,01,12,10.20
2011,10,23,01,13,10.20
2011,10,23,01,14,10.30
2011,10,23,01,15,10.30
2011,10,23,01,16,10.30
2011,10,23,01,17,10.30
2011,10,23,01,18,10.30
2011,10,23,01,19,10.30
2011,10,23,01,20,10.30
2011,10,23,01,21,10.30
2011,10,23,01,22,10.30
2011,10,23,01,23,10.30
2011,10,23,01,24,10.30
2011,10,23,01,25,10.30
2011,10,23,01,26,10.30
2011,10,23,01,27,10.40
2011,10,23,01,28,10.40
2011,10,23,01,29,10.50
2011,10,23,01,30,10.50
2011,10,23,01,31,10.50
2011,10,23,01,32,10.60
2011,10,23,01,33,10.60
2011,10,23,01,34,10.50
2011,10,23,01,35,10.50
2011,10,23,01,36,10.40
2011,10,23,01,37,10.30
2011,10,23,01,38,10.20
2011,10,23,01,39,10.10
2011,10,23,01,40,10.00
2011,10,23,01,41,10.00
2011,10,23,01,42,9.90
2011,10,23,01,43,9.80
2011,10,23,01,44,9.80
2011,10,23,01,45,9.80
2011,10,23,01,46,9.80
2011,10,23,01,47,9.80
2011,10,23,01,48,9.80
2011,10,23,01,49,9.90
2011,10,23,01,50,9.90
2011,10,23,01,51,9.90
2011,10,23,01,52,9.90
2011,10,23,01,53,9.80
2011,10,23,01,54,9.80
2011,10,23,01,55,9.80
2011,10,23,01,56,9.80
2011,10,23,01,57,9.80
2011,10,23,01,58,9.90
2011,10,23,01,59,9.90
2011,10,23,02,00,9.90
2011,10,23,02,01,10.00
2011,10,23,02,02,10.10
2011,10,23,02,03,10.10
2011,10,23,02,04,10.10
2011,10,23,02,05,10.20
2011,10,23,02,06,10.20
2011,10,23,02,07,10.20
2011,10,23,02,08,10.20
2011,10,23,02,09,10.30
2011,10,23,02,10,10.30
2011,10,23,02,11,10.30
2011,10,23,02,12,10.30
2011,10,23,02,13,10.30
2011,10,23,02,14,10.30
2011,10,23,02,15,10.30
2011,10,23,02,16,10.30
2011,10,23,02,17,10.30
2011,10,23,02,18,10.30
2011,10,23,02,19,10.30
2011,10,23,02,20,10.30
2011,10,23,02,21,10.30
2011,10,23,02,22,10.30
2011,10,23,02,23,10.30
2011,10,23,02,24,10.20
2011,10,23,02,25,10.20
2011,10,23,02,26,10.10
2011,10,23,02,27,10.00
2011,10,23,02,28,9.90
2011,10,23,02,29,9.80
2011,10,23,02,30,9.70
2011,10,23,02,31,9.60
2011,10,23,02,32,9.50
2011,10,23,02,33,9.40
2011,10,23,02,34,9.30
2011,10,23,02,35,9.30
2011,10,23,02,36,9.20
2011,10,23,02,37,9.10
2011,10,23,02,38,9.00
2011,10,23,02,39,8.90
2011,10,23,02,40,8.90
2011,10,23,02,41,8.80
2011,10,23,02,42,8.80
2011,10,23,02,43,8.70
2011,10,23,02,44,8.70
2011,10,23,02,45,8.70
2011,10,23,02,46,8.60
2011,10,23,02,47,8.60
2011,10,23,02,48,8.60
2011,10,23,02,49,8.60
2011,10,23,02,50,8.50
2011,10,23,02,51,8.50
2011,10,23,02,52,8.50
2011,10,23,02,53,8.50
2011,10,23,02,54,8.50
2011,10,23,02,55,8.40
2011,10,23,02,56,8.40
2011,10,23,02,57,8.40
2011,10,23,02,58,8.40
2011,10,23,02,59,8.40
2011,10,23,03,00,8.40
2011,10,23,03,01,8.40
2011,10,23,03,02,8.40
2011,10,23,03,03,8.40
2011,10,23,03,04,8.40
2011,10,23,03,05,8.40
2011,10,23,03,06,8.40
2011,10,23,03,07,8.50
2011,10,23,03,08,8.60
2011,10,23,03,09,8.60
2011,10,23,03,10,8.60
2011,10,23,03,11,8.70
2011,10,23,03,12,8.70
2011,10,23,03,13,8.70
2011,10,23,03,14,8.80
2011,10,23,03,15,8.80
2011,10,23,03,16,8.80
2011,10,23,03,17,8.90
2011,10,23,03,18,8.90
2011,10,23,03,19,8.90
2011,10,23,03,20,8.90
2011,10,23,03,21,9.00
2011,10,23,03,22,9.00
2011,10,23,03,23,8.90
2011,10,23,03,24,8.90
2011,10,23,03,25,8.80
2011,10,23,03,26,8.70
2011,10,23,03,27,8.70
2011,10,23,03,28,8.60
2011,10,23,03,29,8.60
2011,10,23,03,30,8.50
2011,10,23,03,31,8.40
2011,10,23,03,32,8.40
2011,10,23,03,33,8.30
2011,10,23,03,34,8.30
2011,10,23,03,35,8.20
2011,10,23,03,36,8.20
2011,10,23,03,37,8.20
2011,10,23,03,38,8.10
2011,10,23,03,39,8.10
2011,10,23,03,40,8.00
2011,10,23,03,41,8.00
2011,10,23,03,42,7.90
2011,10,23,03,43,7.90
2011,10,23,03,44,7.80
2011,10,23,03,45,7.80
2011,10,23,03,46,7.80
2011,10,23,03,47,7.80
2011,10,23,03,48,7.70
2011,10,23,03,49,7.70
2011,10,23,03,50,7.70
2011,10,23,03,51,7.70
2011,10,23,03,52,7.60
2011,10,23,03,53,7.60
2011,10,23,03,54,7.60
2011,10,23,03,55,7.50
2011,10,23,03,56,7.50
2011,10,23,03,57,7.50
2011,10,23,03,58,7.40
2011,10,23,03,59,7.40
2011,10,23,04,00,7.40
2011,10,23,04,01,7.30
2011,10,23,04,02,7.30
2011,10,23,04,03,7.30
2011,10,23,04,04,7.20
2011,10,23,04,05,7.20
2011,10,23,04,06,7.20
2011,10,23,04,07,7.10
2011,10,23,04,08,7.10
2011,10,23,04,09,7.10
2011,10,23,04,10,7.10
2011,10,23,04,11,7.00
2011,10,23,04,12,7.00
2011,10,23,04,13,7.00
2011,10,23,04,14,7.00
2011,10,23,04,15,7.00
2011,10,23,04,16,7.00
2011,10,23,04,17,7.00
2011,10,23,04,18,7.00
2011,10,23,04,19,7.00
2011,10,23,04,20,6.90
2011,10,23,04,21,6.90
2011,10,23,04,22,6.90
2011,10,23,04,23,6.90
2011,10,23,04,24,6.90
2011,10,23,04,25,6.90
2011,10,23,04,26,6.90
2011,10,23,04,27,6.90
2011,10,23,04,28,6.90
2011,10,23,04,29,6.90
2011,10,23,04,30,6.90
2011,10,23,04,31,6.80
2011,10,23,04,32,6.80
2011,10,23,04,33,6.80
2011,10,23,04,34,6.80
2011,10,23,04,35,6.80
2011,10,23,04,36,6.80
2011,10,23,04,37,6.80
2011,10,23,04,38,6.80
2011,10,23,04,39,6.80
2011,10,23,04,40,6.80
2011,10,23,04,41,6.70
2011,10,23,04,42,6.70
2011,10,23,04,43,6.60
2011,10,23,04,44,6.60
2011,10,23,04,45,6.60
2011,10,23,04,46,6.50
2011,10,23,04,47,6.50
2011,10,23,04,48,6.40
2011,10,23,04,49,6.40
2011,10,23,04,50,6.40
2011,10,23,04,51,6.30
2011,10,23,04,52,6.30
2011,10,23,04,53,6.30
2011,10,23,04,54,6.20
2011,10,23,04,55,6.20
2011,10,23,04,56,6.20
2011,10,23,04,57,6.20
2011,10,23,04,58,6.20
2011,10,23,04,59,6.20
2011,10,23,05,00,6.20
2011,10,23,05,01,6.20
2011,10,23,05,02,6.20
2011,10,23,05,03,6.20
2011,10,23,05,04,6.20
2011,10,23,05,05,6.20
2011,10,23,05,06,6.20
2011,10,23,05,07,6.20
2011,10,23,05,08,6.20
2011,10,23,05,09,6.20
2011,10,23,05,10,6.20
2011,10,23,05,11,6.20
2011,10,23,05,12,6.20
2011,10,23,05,13,6.20
2011,10,23,05,14,6.30
2011,10,23,05,15,6.30
2011,10,23,05,16,6.30
2011,10,23,05,17,6.30
2011,10,23,05,18,6.30
2011,10,23,05,19,6.30
2011,10,23,05,20,6.30
2011,10,23,05,21,6.30
2011,10,23,05,22,6.30
2011,10,23,05,23,6.30
2011,10,23,05,24,6.40
2011,10,23,05,25,6.40
2011,10,23,05,26,6.40
2011,10,23,05,27,6.40
2011,10,23,05,28,6.50
2011,10,23,05,29,6.50
2011,10,23,05,30,6.50
2011,10,23,05,31,6.60
2011,10,23,05,32,6.60
2011,10,23,05,33,6.60
2011,10,23,05,34,6.60
2011,10,23,05,35,6.60
2011,10,23,05,36,6.60
2011,10,23,05,37,6.60
2011,10,23,05,38,6.70
2011,10,23,05,39,6.60
2011,10,23,05,40,6.60
2011,10,23,05,41,6.60
2011,10,23,05,42,6.60
2011,10,23,05,43,6.60
2011,10,23,05,44,6.60
2011,10,23,05,45,6.60
2011,10,23,05,46,6.60
2011,10,23,05,47,6.60
2011,10,23,05,48,6.60
2011,10,23,05,49,6.50
2011,10,23,05,50,6.50
2011,10,23,05,51,6.50
2011,10,23,05,52,6.50
2011,10,23,05,53,6.50
2011,10,23,05,54,6.40
2011,10,23,05,55,6.40
2011,10,23,05,56,6.40
2011,10,23,05,57,6.40
2011,10,23,05,58,6.40
2011,10,23,05,59,6.40
2011,10,23,06,00,6.40
2011,10,23,06,01,6.40
2011,10,23,06,02,6.40
2011,10,23,06,03,6.40
2011,10,23,06,04,6.30
2011,10,23,06,05,6.30
2011,10,23,06,06,6.30
2011,10,23,06,07,6.30
2011,10,23,06,08,6.30
2011,10,23,06,09,6.30
2011,10,23,06,10,6.30
2011,10,23,06,11,6.30
2011,10,23,06,12,6.30
2011,10,23,06,13,6.30
2011,10,23,06,14,6.30
2011,10,23,06,15,6.30
2011,10,23,06,16,6.30
2011,10,23,06,17,6.30
2011,10,23,06,18,6.20
2011,10,23,06,19,6.20
2011,10,23,06,20,6.20
2011,10,23,06,21,6.20
2011,10,23,06,22,6.20
2011,10,23,06,23,6.20
2011,10,23,06,24,6.20
2011,10,23,06,25,6.20
2011,10,23,06,26,6.20
2011,10,23,06,27,6.20
2011,10,23,06,28,6.20
2011,10,23,06,29,6.10
2011,10,23,06,30,6.10
2011,10,23,06,31,6.10
2011,10,23,06,32,6.10
2011,10,23,06,33,6.10
2011,10,23,06,34,6.10
2011,10,23,06,35,6.10
2011,10,23,06,36,6.00
2011,10,23,06,37,6.00
2011,10,23,06,38,6.00
2011,10,23,06,39,6.00
2011,10,23,06,40,6.00
2011,10,23,06,41,6.00
2011,10,23,06,42,6.00
2011,10,23,06,43,5.90
2011,10,23,06,44,5.90
2011,10,23,06,45,5.90
2011,10,23,06,46,5.90
2011,10,23,06,47,5.90
2011,10,23,06,48,5.90
2011,10,23,06,49,5.90
2011,10,23,06,50,5.80
2011,10,23,06,51,5.80
2011,10,23,06,52,5.80
2011,10,23,06,53,5.80
2011,10,23,06,54,5.80
2011,10,23,06,55,5.80
2011,10,23,06,56,5.80
2011,10,23,06,57,5.80
2011,10,23,06,58,5.80
2011,10,23,06,59,5.80
2011,10,23,07,00,5.80
2011,10,23,07,01,5.80
2011,10,23,07,02,5.80
2011,10,23,07,03,5.70
2011,10,23,07,04,5.80
2011,10,23,07,05,5.80
2011,10,23,07,06,5.80
2011,10,23,07,07,5.80
2011,10,23,07,08,5.80
2011,10,23,07,09,5.80
2011,10,23,07,10,5.80
2011,10,23,07,11,5.80
2011,10,23,07,12,5.80
2011,10,23,07,13,5.80
2011,10,23,07,14,5.80
2011,10,23,07,15,5.80
2011,10,23,07,16,5.80
2011,10,23,07,17,5.80
2011,10,23,07,18,5.80
2011,10,23,07,19,5.80
2011,10,23,07,20,5.80
2011,10,23,07,21,5.80
2011,10,23,07,22,5.90
2011,10,23,07,23,5.90
2011,10,23,07,24,5.90
2011,10,23,07,25,5.90
2011,10,23,07,26,5.90
2011,10,23,07,27,5.90
2011,10,23,07,28,5.90
2011,10,23,07,29,5.90
2011,10,23,07,30,5.90
2011,10,23,07,31,5.90
2011,10,23,07,32,5.90
2011,10,23,07,33,5.90
2011,10,23,07,34,5.90
2011,10,23,07,35,5.90
2011,10,23,07,36,5.90
2011,10,23,07,37,5.90
2011,10,23,07,38,5.90
2011,10,23,07,39,5.90
2011,10,23,07,40,5.90
2011,10,23,07,41,5.90
2011,10,23,07,42,5.90
2011,10,23,07,43,5.90
2011,10,23,07,44,5.90
2011,10,23,07,45,5.90
2011,10,23,07,46,5.90
2011,10,23,07,47,5.90
2011,10,23,07,48,5.80
2011,10,23,07,49,5.80
2011,10,23,07,50,5.80
2011,10,23,07,51,5.80
2011,10,23,07,52,5.70
2011,10,23,07,53,5.70
2011,10,23,07,54,5.70
2011,10,23,07,55,5.70
2011,10,23,07,56,5.70
2011,10,23,07,57,5.70
2011,10,23,07,58,5.70
2011,10,23,07,59,5.70
2011,10,23,08,00,5.70
2011,10,23,08,01,5.80
2011,10,23,08,02,5.80
2011,10,23,08,03,5.80
2011,10,23,08,04,5.80
2011,10,23,08,05,5.80
2011,10,23,08,06,5.80
2011,10,23,08,07,5.70
2011,10,23,08,08,5.60
2011,10,23,08,09,5.50
2011,10,23,08,10,5.40
2011,10,23,08,11,5.30
2011,10,23,08,12,5.30
2011,10,23,08,13,5.10
2011,10,23,08,14,5.10
2011,10,23,08,15,5.00
2011,10,23,08,16,5.00
2011,10,23,08,17,4.90
2011,10,23,08,18,4.90
2011,10,23,08,19,4.90
2011,10,23,08,20,4.80
2011,10,23,08,21,4.80
2011,10,23,08,22,4.80
2011,10,23,08,23,4.80
2011,10,23,08,24,4.80
2011,10,23,08,25,4.80
2011,10,23,08,26,4.80
2011,10,23,08,27,4.80
2011,10,23,08,28,4.80
2011,10,23,08,29,4.80
2011,10,23,08,30,4.80
2011,10,23,08,31,4.90
2011,10,23,08,32,4.90
2011,10,23,08,33,4.90
2011,10,23,08,34,4.90
2011,10,23,08,35,5.00
2011,10,23,08,36,5.00
2011,10,23,08,37,5.00
2011,10,23,08,38,5.10
2011,10,23,08,39,5.10
2011,10,23,08,40,5.10
2011,10,23,08,41,5.20
2011,10,23,08,42,5.20
2011,10,23,08,43,5.20
2011,10,23,08,44,5.20
2011,10,23,08,45,5.30
2011,10,23,08,46,5.30
2011,10,23,08,47,5.30
2011,10,23,08,48,5.40
2011,10,23,08,49,5.40
2011,10,23,08,50,5.50
2011,10,23,08,51,5.50
2011,10,23,08,52,5.60
2011,10,23,08,53,5.60
2011,10,23,08,54,5.70
2011,10,23,08,55,5.70
2011,10,23,08,56,5.80
2011,10,23,08,57,5.80
2011,10,23,08,58,5.90
2011,10,23,08,59,5.90
2011,10,23,09,00,6.00
2011,10,23,09,01,6.00
2011,10,23,09,02,6.10
2011,10,23,09,03,6.10
2011,10,23,09,04,6.10
2011,10,23,09,05,6.20
2011,10,23,09,06,6.20
2011,10,23,09,07,6.20
2011,10,23,09,08,6.20
2011,10,23,09,09,6.30
2011,10,23,09,10,6.30
2011,10,23,09,11,6.30
2011,10,23,09,12,6.30
2011,10,23,09,13,6.30
2011,10,23,09,14,6.30
2011,10,23,09,15,6.40
2011,10,23,09,16,6.50
2011,10,23,09,17,6.50
2011,10,23,09,18,6.60
2011,10,23,09,19,6.70
2011,10,23,09,20,6.70
2011,10,23,09,21,6.80
2011,10,23,09,22,6.90
2011,10,23,09,23,6.90
2011,10,23,09,24,7.00
2011,10,23,09,25,7.10
2011,10,23,09,26,7.20
2011,10,23,09,27,7.20
2011,10,23,09,28,7.20
2011,10,23,09,29,7.20
2011,10,23,09,30,7.30
2011,10,23,09,31,7.30
2011,10,23,09,32,7.30
2011,10,23,09,33,7.30
2011,10,23,09,34,7.30
2011,10,23,09,35,7.30
2011,10,23,09,36,7.30
2011,10,23,09,37,7.30
2011,10,23,09,38,7.30
2011,10,23,09,39,7.40
2011,10,23,09,40,7.40
2011,10,23,09,41,7.40
2011,10,23,09,42,7.40
2011,10,23,09,43,7.40
2011,10,23,09,44,7.50
2011,10,23,09,45,7.50
2011,10,23,09,46,7.60
2011,10,23,09,47,7.60
2011,10,23,09,48,7.60
2011,10,23,09,49,7.70
2011,10,23,09,50,7.70
2011,10,23,09,51,7.80
2011,10,23,09,52,7.80
2011,10,23,09,53,7.90
2011,10,23,09,54,7.90
2011,10,23,09,55,8.00
2011,10,23,09,56,8.10
2011,10,23,09,57,8.10
2011,10,23,09,58,8.20
2011,10,23,09,59,8.30
2011,10,23,10,00,8.30
2011,10,23,10,01,8.40
2011,10,23,10,02,8.40
2011,10,23,10,03,8.50
2011,10,23,10,04,8.50
2011,10,23,10,05,8.60
2011,10,23,10,06,8.60
2011,10,23,10,07,8.60
2011,10,23,10,08,8.70
2011,10,23,10,09,8.70
2011,10,23,10,10,8.70
2011,10,23,10,11,8.70
2011,10,23,10,12,8.70
2011,10,23,10,13,8.70
2011,10,23,10,14,8.80
2011,10,23,10,15,8.80
2011,10,23,10,16,8.80
2011,10,23,10,17,8.90
2011,10,23,10,18,8.90
2011,10,23,10,19,8.90
2011,10,23,10,20,9.00
2011,10,23,10,21,9.00
2011,10,23,10,22,9.10
2011,10,23,10,23,9.10
2011,10,23,10,24,9.10
2011,10,23,10,25,9.20
2011,10,23,10,26,9.20
2011,10,23,10,27,9.20
2011,10,23,10,28,9.20
2011,10,23,10,29,9.20
2011,10,23,10,30,9.30
2011,10,23,10,31,9.30
2011,10,23,10,32,9.30
2011,10,23,10,33,9.30
2011,10,23,10,34,9.40
2011,10,23,10,35,9.40
2011,10,23,10,36,9.40
2011,10,23,10,37,9.50
2011,10,23,10,38,9.50
2011,10,23,10,39,9.60
2011,10,23,10,40,9.60
2011,10,23,10,41,9.70
2011,10,23,10,42,9.70
2011,10,23,10,43,9.70
2011,10,23,10,44,9.80
2011,10,23,10,45,9.80
2011,10,23,10,46,9.90
2011,10,23,10,47,9.90
2011,10,23,10,48,10.00
2011,10,23,10,49,10.00
2011,10,23,10,50,10.10
2011,10,23,10,51,10.10
2011,10,23,10,52,10.10
2011,10,23,10,53,10.20
2011,10,23,10,54,10.20
2011,10,23,10,55,10.30
2011,10,23,10,56,10.30
2011,10,23,10,57,10.30
2011,10,23,10,58,10.40
2011,10,23,10,59,10.40
2011,10,23,11,00,10.50
2011,10,23,11,01,10.50
2011,10,23,11,02,10.60
2011,10,23,11,03,10.60
2011,10,23,11,04,10.60
2011,10,23,11,05,10.70
2011,10,23,11,06,10.70
2011,10,23,11,07,10.70
2011,10,23,11,08,10.80
2011,10,23,11,09,10.80
2011,10,23,11,10,10.90
2011,10,23,11,11,10.90
2011,10,23,11,12,10.90
2011,10,23,11,13,11.00
2011,10,23,11,14,11.00
2011,10,23,11,15,11.00
2011,10,23,11,16,11.00
2011,10,23,11,17,11.00
2011,10,23,11,18,11.00
2011,10,23,11,19,11.00
2011,10,23,11,20,11.00
2011,10,23,11,21,11.00
2011,10,23,11,22,11.00
2011,10,23,11,23,11.00
2011,10,23,11,24,11.00
2011,10,23,11,25,11.00
2011,10,23,11,26,11.00
2011,10,23,11,27,11.10
2011,10,23,11,28,11.10
2011,10,23,11,29,11.10
2011,10,23,11,30,11.10
2011,10,23,11,31,11.20
2011,10,23,11,32,11.20
2011,10,23,11,33,11.20
2011,10,23,11,34,11.20
2011,10,23,11,35,11.20
2011,10,23,11,36,11.20
2011,10,23,11,37,11.20
2011,10,23,11,38,11.20
2011,10,23,11,39,11.20
2011,10,23,11,40,11.20
2011,10,23,11,41,11.20
2011,10,23,11,42,11.20
2011,10,23,11,43,11.20
2011,10,23,11,44,11.30
2011,10,23,11,45,11.30
2011,10,23,11,46,11.30
2011,10,23,11,47,11.30
2011,10,23,11,48,11.30
2011,10,23,11,49,11.40
2011,10,23,11,50,11.40
2011,10,23,11,51,11.40
2011,10,23,11,52,11.50
2011,10,23,11,53,11.50
2011,10,23,11,54,11.60
2011,10,23,11,55,11.60
2011,10,23,11,56,11.60
2011,10,23,11,57,11.70
2011,10,23,11,58,11.70
2011,10,23,11,59,11.70
2011,10,23,12,00,11.70
2011,10,23,12,01,11.70
2011,10,23,12,02,11.70
2011,10,23,12,03,11.70
2011,10,23,12,04,11.70
2011,10,23,12,05,11.70
2011,10,23,12,06,11.70
2011,10,23,12,07,11.70
2011,10,23,12,08,11.80
2011,10,23,12,09,11.80
2011,10,23,12,10,11.80
2011,10,23,12,11,11.80
2011,10,23,12,12,11.80
2011,10,23,12,13,11.80
2011,10,23,12,14,11.80
2011,10,23,12,15,11.80
2011,10,23,12,16,11.90
2011,10,23,12,17,11.90
2011,10,23,12,18,11.90
2011,10,23,12,19,12.00
2011,10,23,12,20,12.00
2011,10,23,12,21,12.10
2011,10,23,12,22,12.10
2011,10,23,12,23,12.10
2011,10,23,12,24,12.20
2011,10,23,12,25,12.20
2011,10,23,12,26,12.20
2011,10,23,12,27,12.20
2011,10,23,12,28,12.20
2011,10,23,12,29,12.20
2011,10,23,12,30,12.20
2011,10,23,12,31,12.20
2011,10,23,12,32,12.20
2011,10,23,12,33,12.30
2011,10,23,12,34,12.30
2011,10,23,12,35,12.30
2011,10,23,12,36,12.30
2011,10,23,12,37,12.30
2011,10,23,12,38,12.30
2011,10,23,12,39,12.30
2011,10,23,12,40,12.30
2011,10,23,12,41,12.40
2011,10,23,12,42,12.40
2011,10,23,12,43,12.40
2011,10,23,12,44,12.50
2011,10,23,12,45,12.50
2011,10,23,12,46,12.60
2011,10,23,12,47,12.60
2011,10,23,12,48,12.60
2011,10,23,12,49,12.70
2011,10,23,12,50,12.70
2011,10,23,12,51,12.70
2011,10,23,12,52,12.70
2011,10,23,12,53,12.80
2011,10,23,12,54,12.80
2011,10,23,12,55,12.80
2011,10,23,12,56,12.90
2011,10,23,12,57,12.90
2011,10,23,12,58,12.90
2011,10,23,12,59,13.00
2011,10,23,13,00,13.00
2011,10,23,13,01,13.00
2011,10,23,13,02,13.00
2011,10,23,13,03,13.00
2011,10,23,13,04,13.10
2011,10,23,13,05,13.10
2011,10,23,13,06,13.10
2011,10,23,13,07,13.10
2011,10,23,13,08,13.20
2011,10,23,13,09,13.20
2011,10,23,13,10,13.20
2011,10,23,13,11,13.30
2011,10,23,13,12,13.30
2011,10,23,13,13,13.40
2011,10,23,13,14,13.40
2011,10,23,13,15,13.50
2011,10,23,13,16,13.50
2011,10,23,13,17,13.60
2011,10,23,13,18,13.60
2011,10,23,13,19,13.60
2011,10,23,13,20,13.70
2011,10,23,13,21,13.70
2011,10,23,13,22,13.70
2011,10,23,13,23,13.70
2011,10,23,13,24,13.80
2011,10,23,13,25,13.80
2011,10,23,13,26,13.80
2011,10,23,13,27,13.80
2011,10,23,13,28,13.80
2011,10,23,13,29,13.80
2011,10,23,13,30,13.70
2011,10,23,13,31,13.70
2011,10,23,13,32,13.70
2011,10,23,13,33,13.70
2011,10,23,13,34,13.80
2011,10,23,13,35,13.70
2011,10,23,13,36,13.70
2011,10,23,13,37,13.70
2011,10,23,13,38,13.70
2011,10,23,13,39,13.60
2011,10,23,13,40,13.60
2011,10,23,13,41,13.50
2011,10,23,13,42,13.50
2011,10,23,13,43,13.40
2011,10,23,13,44,13.40
2011,10,23,13,45,13.40
2011,10,23,13,46,13.40
2011,10,23,13,47,13.30
2011,10,23,13,48,13.30
2011,10,23,13,49,13.30
2011,10,23,13,50,13.30
2011,10,23,13,51,13.30
2011,10,23,13,52,13.30
2011,10,23,13,53,13.30
2011,10,23,13,54,13.40
2011,10,23,13,55,13.40
2011,10,23,13,56,13.40
2011,10,23,13,57,13.40
2011,10,23,13,58,13.50
2011,10,23,13,59,13.50
2011,10,23,14,00,13.50
2011,10,23,14,01,13.60
2011,10,23,14,02,13.60
2011,10,23,14,03,13.60
2011,10,23,14,04,13.60
2011,10,23,14,05,13.60
2011,10,23,14,06,13.60
2011,10,23,14,07,13.50
2011,10,23,14,08,13.50
2011,10,23,14,09,13.40
2011,10,23,14,10,13.40
2011,10,23,14,11,13.40
2011,10,23,14,12,13.30
2011,10,23,14,13,13.30
2011,10,23,14,14,13.30
2011,10,23,14,15,13.30
2011,10,23,14,16,13.20
2011,10,23,14,17,13.20
2011,10,23,14,18,13.20
2011,10,23,14,19,13.20
2011,10,23,14,20,13.20
2011,10,23,14,21,13.20
2011,10,23,14,22,13.20
2011,10,23,14,23,13.20
2011,10,23,14,24,13.30
2011,10,23,14,25,13.30
2011,10,23,14,26,13.30
2011,10,23,14,27,13.40
2011,10,23,14,28,13.40
2011,10,23,14,29,13.40
2011,10,23,14,30,13.40
2011,10,23,14,31,13.50
2011,10,23,14,32,13.50
2011,10,23,14,33,13.50
2011,10,23,14,34,13.40
2011,10,23,14,35,13.40
2011,10,23,14,36,13.40
2011,10,23,14,37,13.40
2011,10,23,14,38,13.40
2011,10,23,14,39,13.40
2011,10,23,14,40,13.40
2011,10,23,14,41,13.30
2011,10,23,14,42,13.30
2011,10,23,14,43,13.30
2011,10,23,14,44,13.30
2011,10,23,14,45,13.30
2011,10,23,14,46,13.30
2011,10,23,14,47,13.30
2011,10,23,14,48,13.40
2011,10,23,14,49,13.40
2011,10,23,14,50,13.40
2011,10,23,14,51,13.50
2011,10,23,14,52,13.50
2011,10,23,14,53,13.50
2011,10,23,14,54,13.60
2011,10,23,14,55,13.60
2011,10,23,14,56,13.60
2011,10,23,14,57,13.60
2011,10,23,14,58,13.60
2011,10,23,14,59,13.60
2011,10,23,15,00,13.60
2011,10,23,15,01,13.60
2011,10,23,15,02,13.60
2011,10,23,15,03,13.60
2011,10,23,15,04,13.60
2011,10,23,15,05,13.60
2011,10,23,15,06,13.60
2011,10,23,15,07,13.50
2011,10,23,15,08,13.50
2011,10,23,15,09,13.40
2011,10,23,15,10,13.40
2011,10,23,15,11,13.30
2011,10,23,15,12,13.30
2011,10,23,15,13,13.20
2011,10,23,15,14,13.10
2011,10,23,15,15,13.10
2011,10,23,15,16,13.00
2011,10,23,15,17,13.00
2011,10,23,15,18,13.00
2011,10,23,15,19,12.90
2011,10,23,15,20,13.00
2011,10,23,15,21,12.90
2011,10,23,15,22,12.90
2011,10,23,15,23,12.90
2011,10,23,15,24,12.90
2011,10,23,15,25,12.90
2011,10,23,15,26,12.90
2011,10,23,15,27,12.90
2011,10,23,15,28,12.90
2011,10,23,15,29,12.80
2011,10,23,15,30,12.80
2011,10,23,15,31,12.80
2011,10,23,15,32,12.80
2011,10,23,15,33,12.70
2011,10,23,15,34,12.70
2011,10,23,15,35,12.60
2011,10,23,15,36,12.60
2011,10,23,15,37,12.50
2011,10,23,15,38,12.50
2011,10,23,15,39,12.50
2011,10,23,15,40,12.40
2011,10,23,15,41,12.40
2011,10,23,15,42,12.40
2011,10,23,15,43,12.40
2011,10,23,15,44,12.30
2011,10,23,15,45,12.30
2011,10,23,15,46,12.30
2011,10,23,15,47,12.30
2011,10,23,15,48,12.30
2011,10,23,15,49,12.30
2011,10,23,15,50,12.30
2011,10,23,15,51,12.20
2011,10,23,15,52,12.20
2011,10,23,15,53,12.20
2011,10,23,15,54,12.20
2011,10,23,15,55,12.20
2011,10,23,15,56,12.20
2011,10,23,15,57,12.30
2011,10,23,15,58,12.30
2011,10,23,15,59,12.30
2011,10,23,16,00,12.30
2011,10,23,16,01,12.30
2011,10,23,16,02,12.40
2011,10,23,16,03,12.40
2011,10,23,16,04,12.40
2011,10,23,16,05,12.40
2011,10,23,16,06,12.40
2011,10,23,16,07,12.40
2011,10,23,16,08,12.40
2011,10,23,16,09,12.40
2011,10,23,16,10,12.40
2011,10,23,16,11,12.30
2011,10,23,16,12,12.30
2011,10,23,16,13,12.30
2011,10,23,16,14,12.30
2011,10,23,16,15,12.30
2011,10,23,16,16,12.30
2011,10,23,16,17,12.30
2011,10,23,16,18,12.30
2011,10,23,16,19,12.30
2011,10,23,16,20,12.30
2011,10,23,16,21,12.30
2011,10,23,16,22,12.40
2011,10,23,16,23,12.40
2011,10,23,16,24,12.40
2011,10,23,16,25,12.50
2011,10,23,16,26,12.50
2011,10,23,16,27,12.50
2011,10,23,16,28,12.60
2011,10,23,16,29,12.50
2011,10,23,16,30,12.50
2011,10,23,16,31,12.50
2011,10,23,16,32,12.50
2011,10,23,16,33,12.40
2011,10,23,16,34,12.40
2011,10,23,16,35,12.40
2011,10,23,16,36,12.30
2011,10,23,16,37,12.30
2011,10,23,16,38,12.30
2011,10,23,16,39,12.30
2011,10,23,16,40,12.30
2011,10,23,16,41,12.30
2011,10,23,16,42,12.30
2011,10,23,16,43,12.30
2011,10,23,16,44,12.30
2011,10,23,16,45,12.30
2011,10,23,16,46,12.30
2011,10,23,16,47,12.30
2011,10,23,16,48,12.30
2011,10,23,16,49,12.30
2011,10,23,16,50,12.30
2011,10,23,16,51,12.30
2011,10,23,16,52,12.20
2011,10,23,16,53,12.20
2011,10,23,16,54,12.20
2011,10,23,16,55,12.20
2011,10,23,16,56,12.20
2011,10,23,16,57,12.20
2011,10,23,16,58,12.20
2011,10,23,16,59,12.10
2011,10,23,17,00,12.10
2011,10,23,17,01,12.00
2011,10,23,17,02,12.00
2011,10,23,17,03,11.90
2011,10,23,17,04,11.80
2011,10,23,17,05,11.80
2011,10,23,17,06,11.80
2011,10,23,17,07,11.80
2011,10,23,17,08,11.80
2011,10,23,17,09,11.70
2011,10,23,17,10,11.70
2011,10,23,17,11,11.70
2011,10,23,17,12,11.60
2011,10,23,17,13,11.60
2011,10,23,17,14,11.60
2011,10,23,17,15,11.50
2011,10,23,17,16,11.50
2011,10,23,17,17,11.50
2011,10,23,17,18,11.40
2011,10,23,17,19,11.40
2011,10,23,17,20,11.40
2011,10,23,17,21,11.40
2011,10,23,17,22,11.40
2011,10,23,17,23,11.40
2011,10,23,17,24,11.30
2011,10,23,17,25,11.30
2011,10,23,17,26,11.30
2011,10,23,17,27,11.30
2011,10,23,17,28,11.30
2011,10,23,17,29,11.30
2011,10,23,17,30,11.20
2011,10,23,17,31,11.20
2011,10,23,17,32,11.20
2011,10,23,17,33,11.20
2011,10,23,17,34,11.20
2011,10,23,17,35,11.20
2011,10,23,17,36,11.20
2011,10,23,17,37,11.10
2011,10,23,17,38,11.10
2011,10,23,17,39,11.10
2011,10,23,17,40,11.10
2011,10,23,17,41,11.10
2011,10,23,17,42,11.10
2011,10,23,17,43,11.10
2011,10,23,17,44,11.10